Regional Weather Roundup
Issued by NWS Northern Indiana

Home | Current Version | Previous Version | Text Only | Print | Product List | Glossary On
Versions: 1 2 3 4 5 6 7 8 9 10 11 12 13 14 15 16 17 18 19 20 21 22 23 24 25 26 27 28 29 30 31 32 33 34 35 36 37 38 39 40 41 42 43 44 45 46 47 48 49 50
000
ASUS43 KIWX 241110
RWRIWX

KIWX WEATHER ROUNDUP
NATIONAL WEATHER SERVICE NORTHERN INDIANA
700 AM EDT MON APR 24 2017

NOTE: "FAIR" INDICATES FEW OR NO CLOUDS BELOW 12,000 FEET WITH NO
SIGNIFICANT WEATHER AND/OR OBSTRUCTIONS TO VISIBILITY.

* THESE STATIONS ARE NOT UNDER NWS QUALITY CONTROL. THEY ALSO MAY NOT
  REPORT WEATHER SUCH AS PRECIPITATION OR FOG.

INZ001>027-241200-
NORTHERN INDIANA

CITY           SKY/WX    TMP DP  RH WIND       PRES   REMARKS
GARY*          PTCLDY    43  41  93 CALM      30.03R
VALPARAISO     CLEAR     45  33  63 NE5       30.01S
MICHIGAN CITY* CLEAR     34  34 100 CALM      30.03R
LAPORTE*       CLEAR     39  34  81 CALM      30.02R
KNOX*          CLEAR     34  21  60 CALM      30.01R
SOUTH BEND     CLEAR     39  32  76 CALM      30.03R
ELKHART*       CLEAR     41  34  75 CALM      30.03
GOSHEN         CLEAR     39  34  82 CALM      30.03R
MONTICELLO*    CLEAR     44  32  64 CALM      29.99S
LOGANSPORT*    CLEAR     43  32  65 E3        30.00S
ROCHESTER*     CLEAR     41  36  81 CALM      30.02R
WARSAW*        CLEAR     41  36  81 CALM      30.02R
ANGOLA*        CLEAR     43  37  81 CALM      30.03R
FORT WAYNE     PTCLDY    41  29  62 NE5       30.02S
HUNTINGTON*    CLEAR     41  31  67 NE5       30.00S
PERU/GRISSOM   CLEAR     43  30  62 E5        29.98S
MARION*        CLEAR     43  30  61 NE8       30.00R

$$
INZ028>050-241200-
CENTRAL INDIANA

CITY           SKY/WX    TMP DP  RH WIND       PRES   REMARKS
LAFAYETTE      CLEAR     38  36  92 CALM      29.99S
KOKOMO*        CLEAR     42  30  62 NE6       30.00S
MUNCIE*        CLEAR     41  33  73 CALM      29.98S
INDIANAPOLIS   PTCLDY    47  34  60 NE10      29.96R

$$
MIZ043>046-050>051-056>058-064>065-071>073-077>080-241200-
SOUTHWEST LOWER MICHIGAN

CITY           SKY/WX    TMP DP  RH WIND       PRES   REMARKS
BATTLE CREEK   CLEAR     42  41  96 CALM      30.05S
BENTON HARBOR  CLEAR     34  30  85 E5        30.02R WCI  30
COLDWATER*     CLEAR     42  36  80 E3        30.04R
HILLSDALE*     CLEAR     37  32  81 NE6       30.04R
HOLLAND        CLEAR     42  38  85 E7        30.05R
GRAND RAPIDS   PTCLDY    41  38  89 E8        30.05S
KALAMAZOO      CLEAR     42  39  89 CALM      30.04S
STURGIS*       CLEAR     44  32  63 E5        30.03R
THREE RIVERS*  FAIR      37  35  92 CALM      30.04R

$$
OHZ001>008-015>018-024>025-241200-
NORTHWEST OHIO

CITY           SKY/WX    TMP DP  RH WIND       PRES   REMARKS
WAUSEON*       FAIR      41  37  87 NE9       30.05R
DEFIANCE       CLEAR     40  32  73 NE6       30.04R
FINDLAY        CLEAR     44  28  53 NE10      30.00S
TOLEDO EXPRESS CLEAR     41  39  93 N6        30.05R
TOLEDO METCALF CLEAR     46  44  93 N7        30.05R FOG
LIMA           CLEAR     42  30  62 E6        29.99S

$$
AND FOR LAKE MICHIGAN COASTAL AND OPEN LAKE BUOY OBSERVATIONS

STATION/POSITION TEMP    WIND        PRES    VSBY  WAVE
                 AIR SEA DIR/SP/G                  HT/PER
                 (F)     (DEG/KT/KT) (MB)    (MI)  (FT/S)
CALUMET HARBOR    43      20/  3/  6 1016.0F
MICHIGAN CITY     44      CALM  /  1   N/A
BURNS HARBOR      45     360/  3/  4 1016.9S
SOUTH LAKE BUOY   41 40   30/  4/  6 1017.2          3/ 6
4 MI NW BRIDGMAN  49 50  130/  4/  6 1017.0          3/ 2

$$
&&




USA.gov is the U.S. government's official web portal to all federal, state and local government web resources and services.